Location: Calvin Observatory
(42.9309°N, 85.5886°W)
Time: 19:19:09
(UTC-05:00)

ISS - Visible Passes

Search period start: 25 January 2015 00:00
Search period end: 04 February 2015 00:00
Orbit: 402 x 410 km, 51.6° (Epoch: 25 January)

Date Brightness Start Highest point End Pass type
(mag) Time Alt. Az. Time Alt. Az. Time Alt. Az.
25 Jan -1.4 05:44:50 30° ENE 05:44:50 30° ENE 05:46:49 10° E visible
25 Jan -1.9 07:17:32 12° W 07:20:01 26° SW 07:22:50 10° SSE visible
26 Jan -3.0 06:28:04 46° WSW 06:28:22 48° SW 06:31:34 10° SE visible
27 Jan -0.9 05:38:39 22° SE 05:38:39 22° SE 05:39:56 10° SE visible
27 Jan -1.0 07:11:34 10° WSW 07:12:43 11° SW 07:13:44 10° SSW visible
28 Jan -1.3 06:22:02 18° SSW 06:22:02 18° SSW 06:23:36 10° S visible
03 Feb -1.1 19:24:58 10° S 19:26:00 14° SSE 19:26:00 14° SSE visible
